Location: Bassano
(45.7667°N, 11.7333°E)
Time: 22:52:21
(UTC+00:00)

STARLINK-1367 - Pass Details

Date: 07 June 2020
Orbit: 378 x 381 km, 53.0° (Epoch: 14 July)

Event Time Altitude Azimuth Distance (km) Brightness Sun altitude
Rises 01:37:49 0° 302° (WNW) 2,258 6.7 -13.9°
Reaches altitude 10° 01:39:58 10° 311° (NW) 1,403 5.8 -13.7°
Maximum altitude 01:42:56 39° 22° (NNE) 592 4.4 -13.4°
Drops below altitude 10° 01:45:53 10° 93° (E) 1,397 6.1 -13.1°
Sets 01:48:01 0° 102° (ESE) 2,247 7.1 -12.8°
